Regional Weather Roundup
Issued by NWS

Home | Current Version | Previous Version | Graphics & Text | Print | Product List | Glossary On
Versions: 1 2 3 4 5 6 7 8 9 10 11 12 13 14 15 16 17 18 19 20 21 22 23 24 25 26 27 28 29 30 31 32 33 34 35 36 37 38 39 40 41 42 43 44 45 46 47 48 49 50
000
ASUS45 KCYS 050510
RWRWY

WYOMING REGIONAL WEATHER ROUNDUP
NATIONAL WEATHER SERVICE CHEYENNE WY
1100 PM MDT WED MAY 04 2016

NOTE:  "FAIR" INDICATES FEW OR NO CLOUDS BELOW 12,000 FEET
WITH NO SIGNIFICANT WEATHER AND/OR OBSTRUCTIONS TO VISIBILITY.

WYZ001-050600-
YELLOWSTONE NATIONAL PARK

CITY           SKY/WX    TMP DP  RH WIND       PRES   REMARKS
LK YELLOWSTONE   N/A     37  29  72 CALM      30.22R
W YELLOWSTONE  NOT AVBL

$$
WYZ002>013-054>058-071-098>099-050600-
NORTHERN WYOMING

CITY           SKY/WX    TMP DP  RH WIND       PRES   REMARKS
JACKSON        FAIR      48  30  49 NE5       30.12S
CODY           FAIR      61  30  31 SW9       30.01F
GREYBULL       FAIR      65  29  25 E8        29.94S
WORLAND        FAIR      60  35  39 VRB3      29.96S
SHERIDAN       FAIR      51  37  58 S7        29.97S
BUFFALO        FAIR      61  30  31 W12       30.03F
GILLETTE       FAIR      57  42  57 S16       30.00F
HULETT         FAIR      61  39  44 CALM      30.03S
NEWCASTLE      FAIR      63  34  34 E15       30.06S

$$
WYZ014>020-022>026-101>103-050600-
CENTRAL WYOMING

CITY           SKY/WX    TMP DP  RH WIND       PRES   REMARKS
BIG PINEY      FAIR      44  29  55 NE5       30.16R
PINEDALE       MOCLDY    45  30  57 W3        30.18S
DUBOIS         FAIR      46  21  36 NW9       30.15S
LANDER         FAIR      63  23  21 E7        30.04S
RIVERTON       FAIR      60  33  36 SW8       30.05F
CASPER         FAIR      46  35  65 CALM      30.07S
DOUGLAS        FAIR      53  40  61 SE10      30.09S

$$
WYZ021-027>030-104>119-050600-
SOUTHERN WYOMING

CITY           SKY/WX    TMP DP  RH WIND       PRES   REMARKS
EVANSTON       FAIR      57  27  31 NE6       30.16S
KEMMERER         N/A     52  30  43 NW9       30.18S
FORT BRIDGER   CLEAR     57  27  30 S13       30.18S
ROCK SPRINGS   FAIR      54  26  34 S7        30.16S
DIXON          FAIR      51  31  45 E6        30.21S
RAWLINS        FAIR      44  32  62 CALM      30.17F
SARATOGA       FAIR      43  28  56 S14       30.21S
LARAMIE        FAIR      44  35  70 S12       30.22S
CHEYENNE       FAIR      52  35  52 S7        30.18S
TORRINGTON     FAIR      56  43  61 SE10      30.08S
PINE BLUFFS    FAIR      52  37  58 S6        30.16S

$$



USA.gov is the U.S. government's official web portal to all federal, state and local government web resources and services.